{"data":{"norad_id":61539,"epoch":"2026-05-24T21:57:57.860064Z","epoch_age_seconds":79498,"freshness":"FRESH","line1":"1 61539U 24184H   26144.91525301  .00000591  00000+0  97378-5 0  9999","line2":"2 61539  53.1591 220.2064 0001066  64.5028 295.6100 15.69708278 92393","mean_motion":15.69708278,"eccentricity":0.0001066,"inclination_deg":53.1591,"raan_deg":220.2064,"arg_perigee_deg":64.5028,"mean_anomaly_deg":295.61,"bstar":9.7378e-6,"rev_number":9239,"period_min":91.736790853568,"perigee_km":359.01342132805,"apogee_km":360.44993493023,"semimajor_km":6737.8686781291,"source":"CELESTRAK","updated_at":"2026-05-25T13:38:19.398433Z"}}